Wind_Speed
29 28 28 27 27 27 26 26 26 26 27 26 26 25 25 24 24 24 25 25 26 28 29 30 30 30 30 29 28 27 27 27 26 26 26 26 26 25 25 24 24 24 24 24 24 25 26 26 26 25 25 26 26 26 25 22 21 21 23 23 22 21 21 21 21 21 22 22 21 20 19 18 19 20 20 21 21 22 22 22 22 22 22 22 21 20
32 31 31 30 29 28 27 25 24 24 24 25 25 25 25 25 25 25 25 25 27 28 29 30 29 29 28 27 26 25 24 24 23 24 24 24 24 24 24 24 24 24 25 25 26 27 27 27 26 25 26 26 27 27 25 22 21 21 22 21 20 19 19 19 20 21 21 20 19 18 18 19 19 20 21 22 22 23 23 23 23 22 22 21 21 20
33 34 34 33 32 30 29 28 27 27 27 27 27 27 27 27 26 26 26 26 27 28 29 29 28 28 27 26 24 23 22 22 22 22 23 23 23 24 24 25 25 25 26 26 27 27 27 27 26 25 25 26 26 26 25 23 22 23 22 20 19 18 18 19 20 21 20 18 17 17 18 20 21 22 23 23 24 24 24 23 23 22 22 21 21 20
35 36 37 36 35 33 31 29 29 30 30 31 30 30 29 28 28 27 26 26 27 27 27 27 27 27 26 25 24 23 22 22 22 22 22 23 23 24 25 25 26 26 26 27 27 27 27 26 25 24 24 25 25 25 25 25 25 25 24 22 20 19 19 20 21 21 20 18 18 18 19 21 22 24 24 25 25 25 24 23 23 22 22 22 21 21
39 39 39 38 37 35 33 30 29 29 30 31 31 30 30 29 28 27 27 27 27 27 27 27 27 26 26 25 24 23 23 23 23 23 23 23 23 24 25 26 26 26 26 27 27 27 26 25 24 23 23 23 23 24 25 27 28 27 26 24 22 21 21 22 22 22 20 19 18 19 21 22 24 25 25 25 26 25 25 23 23 23 23 22 22 21
41 41 40 40 38 36 34 31 29 28 29 29 29 30 30 30 29 28 27 27 27 27 27 27 27 26 26 25 25 24 24 24 24 23 23 23 24 25 26 26 25 25 26 26 26 26 25 24 23 23 23 23 23 24 26 27 27 27 26 24 23 22 22 23 24 23 21 20 19 20 21 23 24 25 26 26 26 26 25 23 23 23 23 23 22 21
43 43 42 42 41 39 36 33 31 29 29 29 28 29 30 30 29 29 28 28 27 27 27 27 27 27 26 26 25 25 25 25 25 24 24 24 25 26 26 26 25 25 25 26 26 26 25 24 23 23 24 24 24 25 25 25 25 25 24 23 22 23 24 25 25 24 21 20 20 21 22 23 24 25 26 26 26 26 25 24 23 23 23 23 22 21
46 45 44 44 43 41 39 36 34 32 31 30 30 30 31 31 30 30 29 29 28 28 28 28 28 27 27 27 26 26 26 26 26 26 25 26 26 26 26 26 26 25 26 26 26 26 25 24 23 24 26 27 26 25 24 23 23 23 22 22 23 24 26 26 26 24 22 20 20 21 22 23 25 25 26 26 26 25 25 24 24 24 24 23 22 21
47 47 46 45 44 43 42 40 38 36 35 35 34 33 32 32 31 31 31 30 29 29 29 29 29 29 28 28 28 28 28 28 28 27 27 27 27 27 27 27 26 26 26 26 26 26 25 24 24 26 28 29 28 25 24 23 22 22 23 24 25 27 27 27 26 24 23 22 21 22 23 24 25 25 26 26 26 25 25 24 24 24 24 23 22 21
47 47 47 46 46 45 43 43 42 40 39 38 38 37 35 33 32 32 32 31 31 31 31 31 31 31 30 30 30 30 30 29 29 29 29 29 29 28 28 27 27 26 26 26 26 26 25 25 26 28 30 30 28 26 24 23 23 24 26 27 28 28 27 26 25 24 24 23 23 23 23 24 25 25 25 26 26 26 25 25 24 24 23 23 22 21
47 46 46 46 46 46 45 44 43 42 41 40 39 38 37 34 33 33 33 33 32 32 32 33 33 32 32 32 31 31 31 31 30 30 30 30 30 29 29 28 27 27 27 27 27 26 26 26 27 29 30 29 28 26 24 24 25 27 29 29 29 27 26 26 25 25 25 25 25 24 24 24 25 25 25 26 26 26 25 25 24 23 23 22 21 21
47 46 46 46 46 46 45 45 44 43 41 40 40 39 37 35 34 34 34 34 33 34 34 34 34 34 33 33 32 32 32 32 31 31 31 31 31 30 29 28 28 27 27 27 27 26 26 27 28 29 29 28 27 25 24 25 27 29 30 29 28 27 26 26 26 26 26 26 26 26 25 25 25 25 25 26 26 26 26 25 24 23 22 21 21 21
47 47 46 46 46 46 45 44 44 43 41 40 39 38 37 36 35 35 35 35 35 35 35 35 35 35 35 34 34 33 33 32 32 32 32 32 32 31 30 29 28 27 27 27 26 26 26 27 28 28 28 27 26 25 25 26 29 30 30 29 28 28 28 28 28 28 27 27 27 26 25 25 25 25 26 27 27 26 25 24 23 22 21 21 21 20
48 48 47 47 46 46 45 45 43 42 41 40 38 37 36 36 35 35 35 35 36 36 37 37 37 36 36 35 35 34 33 33 32 32 32 32 32 31 31 29 28 28 27 26 26 26 26 27 27 27 28 27 26 25 26 29 30 31 31 30 30 30 30 29 29 29 28 28 27 26 25 25 25 26 27 27 26 26 24 23 21 20 20 20 20 20
49 49 48 48 47 47 46 45 43 42 41 39 38 37 37 36 36 36 36 36 36 37 37 38 38 37 37 36 36 35 34 33 33 33 33 33 32 32 31 30 29 28 27 26 26 26 26 27 27 27 27 27 27 27 29 31 32 33 32 32 32 32 31 31 30 29 28 27 27 26 26 26 26 27 27 27 26 25 23 22 20 19 19 19 20 20
50 49 49 48 48 47 46 45 44 42 41 39 38 37 37 37 37 36 36 36 37 38 38 38 38 38 37 37 36 36 35 34 33 33 33 33 32 32 31 30 28 27 27 27 27 27 27 27 27 27 28 28 29 30 32 33 34 34 34 34 33 33 32 31 29 28 28 27 27 26 26 26 27 27 27 26 25 24 23 21 20 19 18 18 19 20
50 50 50 49 48 47 46 45 44 42 41 39 38 37 37 37 37 37 37 37 38 38 39 39 39 38 38 37 37 36 35 34 33 33 33 33 32 32 31 29 27 26 27 28 29 29 28 28 28 28 29 30 31 32 33 34 35 35 35 34 33 32 31 30 29 28 27 27 26 26 26 27 27 27 26 26 24 23 22 21 20 18 18 18 18 20
51 50 50 49 48 47 46 45 44 43 41 39 38 37 37 37 37 37 38 38 38 39 39 40 39 39 38 37 37 36 35 34 33 33 32 32 32 32 31 29 28 28 29 30 31 31 30 29 29 29 30 31 32 33 33 33 33 33 33 32 32 31 30 29 29 28 27 27 27 26 27 27 27 26 26 25 24 23 22 21 20 19 18 18 19 20
51 51 50 49 48 47 46 45 44 42 41 40 38 38 37 37 38 38 38 38 39 39 40 40 40 39 38 37 37 36 35 34 34 33 33 32 32 32 31 30 29 30 31 32 32 32 31 30 29 30 30 31 31 31 31 30 30 31 31 31 31 30 30 30 29 28 28 27 27 27 27 27 26 26 25 24 23 22 22 21 20 20 19 19 19 20
52 51 50 49 48 47 46 45 44 42 41 40 39 38 38 38 38 38 38 39 39 39 40 40 40 39 38 37 37 36 35 35 34 34 33 33 32 32 32 31 31 31 32 33 33 32 31 30 30 29 30 30 31 30 30 30 30 30 31 31 31 31 31 31 30 29 28 27 27 27 26 26 26 25 24 23 22 22 22 22 21 20 20 20 20 21
52 51 50 49 47 46 45 44 43 42 41 40 40 39 39 38 38 38 38 39 39 40 40 40 40 39 38 37 37 36 36 36 35 35 34 33 33 33 33 32 32 32 32 33 33 32 31 30 29 28 29 30 31 31 31 31 31 32 32 33 33 33 32 31 30 29 28 27 27 27 26 26 25 24 24 23 22 22 22 22 22 21 21 21 21 21
51 51 50 49 47 46 45 44 43 42 42 41 40 39 39 38 38 38 38 39 39 40 40 40 40 39 39 38 38 37 37 37 36 36 35 35 34 34 34 33 33 32 32 32 32 32 31 29 29 29 30 32 33 33 33 34 34 34 35 35 34 34 33 31 30 29 28 27 27 26 26 25 25 24 23 23 23 22 22 22 22 22 21 21 21 21
51 50 49 48 47 46 45 44 43 42 42 41 40 40 39 39 38 39 39 39 40 40 41 41 40 40 39 39 39 38 38 37 37 37 37 36 35 35 35 34 34 33 32 32 32 31 30 30 30 30 32 34 35 35 36 36 36 36 36 36 36 35 33 31 29 28 27 27 27 26 26 25 24 24 23 23 23 23 23 22 22 22 22 21 21 21
50 49 48 47 46 45 44 43 43 42 42 41 40 40 39 39 39 39 39 40 40 41 41 41 41 40 40 39 39 39 39 38 38 38 38 37 36 36 35 35 34 33 32 32 31 31 30 30 31 32 34 35 36 37 37 38 38 38 38 37 36 34 32 29 28 27 27 27 26 26 26 25 24 23 23 23 23 23 23 22 22 22 21 21 21 21
49 48 47 46 45 44 44 43 42 42 41 40 40 39 39 39 40 40 40 41 41 41 41 41 41 40 40 40 40 40 39 39 39 39 38 38 37 36 35 35 34 33 33 32 32 32 32 32 33 34 35 36 37 38 38 38 38 38 38 37 35 32 30 28 27 26 26 26 26 26 25 24 24 23 23 23 23 22 22 22 21 21 21 21 20 20
48 47 46 46 45 44 43 42 42 41 41 40 39 39 39 40 40 41 41 41 41 41 41 41 41 40 40 40 40 40 40 39 39 39 39 38 37 36 35 35 35 34 33 33 33 33 33 33 34 34 35 36 37 38 38 38 38 38 37 35 32 29 27 26 26 26 26 26 26 25 25 24 23 23 23 22 22 21 21 20 20 20 19 19 19 19
46 46 45 45 44 43 43 42 41 41 40 40 39 39 39 40 41 41 42 41 41 41 41 41 41 41 40 40 40 40 40 40 39 39 39 38 37 36 35 35 35 34 33 33 33 34 34 34 34 35 36 36 37 37 37 37 37 36 34 32 29 27 26 25 25 25 25 25 26 25 24 24 23 23 22 22 21 21 20 19 19 18 18 17 17 18
45 45 44 44 43 43 42 42 41 40 40 39 39 39 39 40 41 41 41 41 41 41 42 41 41 41 40 40 40 40 40 40 39 39 39 38 37 37 36 35 35 35 34 34 34 34 35 35 35 35 36 36 36 36 36 35 35 33 31 29 27 25 25 25 25 25 25 26 26 25 24 24 23 23 22 22 21 21 20 19 18 17 17 16 16 17
45 44 44 44 43 43 42 42 41 41 40 39 39 39 39 40 40 41 41 40 41 41 42 41 41 41 40 40 40 40 40 40 39 39 39 38 38 37 36 36 36 35 35 35 35 35 35 35 35 35 35 35 35 35 34 33 32 30 28 27 25 25 25 25 25 25 26 26 26 25 24 24 23 23 23 23 22 21 21 20 19 18 17 16 17 18
44 44 44 43 43 43 42 42 41 41 40 39 39 39 39 40 40 40 40 41 41 41 41 41 41 41 41 40 41 40 40 40 39 39 39 39 38 37 36 36 36 36 35 35 35 35 35 35 35 34 34 34 34 33 32 31 30 28 26 25 25 25 25 25 25 26 26 26 25 24 24 24 24 24 24 24 23 22 22 21 20 19 18 17 18 19
44 44 44 43 43 42 42 42 41 41 40 39 39 39 39 39 40 40 41 41 42 42 41 41 41 41 41 41 41 40 40 39 39 39 38 38 38 37 36 36 36 36 35 35 35 34 34 34 34 33 33 32 32 31 30 29 27 26 26 25 25 25 25 26 26 27 27 26 25 24 24 24 24 24 25 25 24 23 23 22 21 20 19 19 19 20
43 44 44 43 43 42 42 42 41 41 40 40 40 40 39 39 40 40 41 42 42 42 41 41 41 41 41 40 40 40 39 38 38 38 38 38 38 37 36 36 35 35 35 34 34 34 34 33 33 32 32 31 30 29 28 27 26 26 26 26 26 27 27 27 28 28 28 26 25 24 24 23 23 24 25 25 25 24 23 23 22 21 20 20 21 22
43 44 44 43 43 42 42 42 41 41 40 40 40 40 40 40 40 41 41 42 42 42 42 41 41 41 40 40 40 39 38 38 37 37 38 38 38 37 36 36 35 34 34 34 34 34 33 33 32 31 31 30 29 28 27 26 26 26 27 27 28 28 28 28 29 29 28 27 25 25 24 23 23 23 24 25 25 25 24 23 22 22 22 22 23 23
43 43 43 43 43 42 42 42 41 41 40 40 40 41 41 41 41 42 42 42 42 42 41 41 41 41 40 40 40 39 38 37 37 37 38 38 37 37 36 35 35 34 34 34 34 34 33 33 32 31 30 30 29 28 28 28 28 28 28 29 29 29 29 29 29 29 28 27 26 26 24 23 23 24 25 25 26 25 24 23 23 22 23 23 23 23
44 44 43 43 42 42 42 41 41 40 40 40 40 41 41 42 42 43 43 42 42 41 41 41 41 41 41 40 39 38 38 37 37 37 38 38 37 37 36 36 35 34 34 33 33 33 33 32 31 30 30 30 29 29 29 29 29 30 30 30 30 29 29 29 29 28 28 27 27 26 25 25 24 25 25 26 26 25 24 23 23 23 23 23 23 23
44 44 44 43 43 42 41 41 40 40 40 39 40 40 42 43 43 44 43 43 42 41 41 41 42 42 41 40 39 38 37 37 37 37 37 37 37 37 36 36 35 34 34 33 33 32 32 31 30 30 29 30 30 30 30 30 30 31 30 30 29 29 29 28 28 27 27 27 27 26 26 26 25 26 26 26 25 25 24 23 23 23 23 23 23 22
45 45 45 44 43 42 41 41 40 39 39 39 39 40 42 43 44 45 44 44 43 41 41 42 43 43 42 40 39 38 38 37 37 37 37 37 37 36 36 36 35 34 33 33 32 32 31 30 30 29 29 30 30 31 31 31 31 31 30 29 29 28 28 27 27 26 26 27 27 27 26 26 26 26 26 26 25 24 23 23 22 22 22 22 22 22
45 46 46 45 44 43 41 41 40 39 39 39 39 40 42 43 45 45 46 46 45 43 43 44 44 43 42 40 39 38 38 38 37 37 37 37 37 37 36 36 35 34 33 33 32 32 31 30 30 30 30 30 30 31 31 31 31 30 29 29 28 28 27 26 26 26 26 26 27 27 26 26 26 26 26 25 24 23 23 22 22 22 22 22 21 21
46 46 46 46 44 43 41 40 40 39 39 39 40 40 42 43 45 46 47 48 47 46 45 45 44 43 42 40 39 39 38 37 37 37 37 37 37 37 36 36 35 34 33 33 32 32 31 31 31 31 31 31 31 31 31 31 30 29 29 28 28 27 27 26 26 26 26 26 26 26 26 26 26 26 25 24 23 23 22 22 22 22 21 21 21 20
46 47 47 46 44 42 41 40 40 40 40 40 40 41 42 43 45 47 48 49 49 48 46 45 44 43 41 40 39 39 38 37 37 36 36 37 37 37 36 36 35 34 33 33 32 32 32 32 31 31 31 31 31 31 30 29 29 28 28 28 28 27 27 27 26 26 26 26 26 26 26 26 25 25 24 23 23 22 22 22 21 21 21 21 20 20
46 46 46 45 43 42 40 40 40 40 40 40 40 41 42 44 45 47 49 49 49 48 46 45 44 42 41 40 40 39 38 37 36 36 36 36 37 36 36 35 34 33 32 32 32 32 32 32 32 32 32 31 30 29 29 28 28 28 28 28 27 27 27 27 26 26 26 26 26 25 25 25 25 24 24 23 22 22 22 21 21 21 21 20 20 20
45 45 44 43 41 40 40 40 40 40 40 40 40 41 42 44 45 47 48 48 47 46 45 45 44 42 40 40 39 38 37 36 35 35 36 36 36 36 35 34 33 32 32 32 32 33 33 33 33 33 32 31 30 29 29 29 29 29 29 28 28 27 27 27 26 26 26 26 25 25 25 25 25 24 23 23 22 22 21 21 21 21 20 20 20 20
43 43 42 41 40 39 39 39 39 40 40 40 40 41 42 43 44 45 45 45 44 44 45 45 44 42 40 39 38 37 36 35 35 35 35 35 35 35 34 33 32 31 32 32 33 33 34 33 33 32 31 31 30 30 30 30 30 29 29 28 28 27 26 26 26 26 26 26 25 25 25 25 24 24 23 23 22 22 21 21 21 21 21 21 20 20
41 40 40 39 39 38 38 38 38 39 39 39 40 41 41 42 43 43 43 43 42 43 45 45 44 41 39 37 35 35 34 34 34 34 35 35 34 34 33 32 31 31 32 33 33 34 33 33 32 31 31 30 30 30 30 30 29 29 28 28 27 26 26 25 25 25 25 25 25 25 25 24 24 23 23 22 22 22 22 21 21 21 21 21 21 21
39 39 38 38 37 37 37 37 37 38 38 39 40 40 41 41 42 42 42 42 42 43 45 45 43 40 37 35 34 34 33 34 34 34 34 34 33 32 32 31 31 32 32 33 33 33 32 31 31 30 30 30 30 30 30 29 29 28 28 27 27 27 26 26 26 26 25 25 25 24 24 24 23 23 22 22 22 22 22 22 22 22 22 22 22 22
38 38 37 37 36 36 36 36 36 37 38 39 39 40 40 41 41 42 42 42 43 44 44 44 41 38 36 34 33 33 33 34 34 34 33 33 33 32 32 32 32 32 32 32 32 31 31 30 30 30 30 30 30 29 29 28 28 28 27 27 27 27 27 27 27 27 26 25 25 24 23 23 23 22 22 22 22 22 22 22 22 22 22 22 22 22
37 37 36 35 35 34 35 35 36 37 38 38 39 40 40 41 41 41 42 42 43 43 43 42 40 37 35 34 33 33 34 34 34 34 33 33 32 32 32 32 32 32 32 31 31 31 31 31 31 31 31 30 29 29 28 28 28 28 28 28 28 28 27 27 27 26 26 25 25 24 24 23 22 22 22 22 22 22 22 23 23 23 23 23 23 22
36 35 35 34 34 34 34 35 35 36 37 38 39 40 41 41 41 41 41 41 42 43 43 41 39 37 35 34 34 34 34 34 34 34 33 33 32 32 32 32 32 31 31 31 31 32 32 32 32 32 31 30 29 29 28 28 28 28 28 28 28 28 27 26 26 26 25 25 25 24 24 23 22 22 22 22 23 23 23 23 23 23 23 23 23 22
35 35 34 34 33 34 34 34 35 36 37 38 39 39 40 40 40 39 39 40 41 42 42 40 38 36 35 34 34 34 34 34 34 34 33 32 32 32 31 31 31 31 31 32 32 32 33 33 32 32 31 31 30 30 29 29 28 28 28 28 28 28 27 26 26 25 25 25 24 24 23 23 23 23 23 23 23 23 23 23 23 23 23 23 22 22
35 35 34 34 34 34 34 34 34 35 36 36 37 37 37 37 37 37 37 39 40 41 41 39 37 35 35 34 34 35 35 35 34 33 32 32 31 31 31 31 31 31 32 32 32 33 33 32 32 31 31 31 31 31 30 30 29 29 29 29 28 28 28 27 26 26 25 24 24 24 23 23 23 23 23 23 23 23 24 23 23 23 22 22 21 21
36 35 35 34 34 34 34 33 33 33 33 34 34 34 33 33 34 35 36 38 40 41 40 38 36 35 34 34 34 35 35 35 34 33 32 32 32 32 31 31 31 31 32 32 32 32 32 32 31 31 31 30 30 31 31 31 30 30 29 29 28 28 28 27 26 26 25 25 24 23 23 23 23 23 23 23 23 23 23 23 22 22 21 21 20 20
Wind_Direction
279 277 274 272 272 273 275 275 274 273 273 273 274 275 275 275 275 275 273 272 271 271 271 272 273 273 272 272 271 269 268 266 264 262 261 260 259 259 260 261 263 264 264 264 264 263 263 262 261 259 258 257 257 255 252 251 257 269 278 279 276 272 268 265 264 265 268 271 272 273 273 271 268 266 265 266 268 270 273 277 280 283 286 287 287 284
276 274 272 270 269 269 270 271 270 270 270 272 273 275 276 277 277 276 273 270 268 268 269 270 271 271 270 269 267 266 264 263 261 260 258 258 258 260 261 263 264 264 264 264 263 262 261 261 259 256 255 254 255 253 250 250 256 266 271 272 270 268 267 267 267 268 270 272 274 275 275 273 270 267 266 266 267 269 272 275 279 283 285 287 285 282
270 270 269 267 267 267 269 271 272 272 273 274 275 276 277 278 278 276 272 269 267 266 267 268 269 268 267 265 263 261 259 258 257 257 256 257 259 261 263 264 264 264 264 264 263 262 261 260 258 257 255 255 255 254 251 249 252 258 262 262 262 262 263 265 267 268 269 269 270 271 271 269 267 264 263 263 265 268 271 275 278 282 285 286 284 281
264 265 266 266 266 266 268 271 274 276 277 277 277 277 277 277 277 275 272 269 268 267 267 267 266 266 264 262 259 258 257 256 256 255 256 258 260 263 264 264 264 264 264 263 263 262 261 260 259 258 258 258 258 257 254 251 251 253 256 257 257 258 260 264 266 267 266 266 266 267 266 265 264 262 261 262 264 267 272 275 278 281 284 284 283 280
263 264 265 266 266 266 266 268 271 275 277 277 278 277 277 276 274 273 271 269 268 267 266 265 264 263 261 259 258 257 256 256 256 257 258 260 262 264 264 264 263 263 262 262 262 261 260 259 259 260 261 262 261 260 256 253 252 252 254 255 256 257 260 263 264 264 263 263 264 265 264 263 262 261 261 261 264 267 272 275 278 280 282 283 281 278
265 266 267 267 267 266 265 264 266 270 273 275 276 276 275 274 272 270 269 267 266 265 264 262 261 259 258 257 257 257 257 257 258 258 259 261 262 263 263 263 262 261 261 261 261 260 259 257 257 259 262 263 263 260 257 254 252 252 253 254 256 259 261 262 262 261 261 263 263 263 262 261 261 260 260 261 263 267 272 275 277 280 281 281 279 276
267 268 268 269 268 267 265 263 263 265 269 272 273 273 273 272 270 267 266 264 263 262 261 260 258 257 256 256 256 257 257 258 259 259 260 261 262 263 262 261 260 259 259 259 260 259 257 255 254 256 259 261 261 259 256 254 252 252 252 254 257 260 262 261 261 261 262 263 262 261 260 259 258 258 258 260 263 267 272 275 277 279 280 279 276 273
268 268 269 269 270 270 268 265 263 262 265 267 269 269 269 269 267 265 263 262 261 259 258 257 256 255 255 256 256 257 257 258 259 259 260 261 261 261 261 261 260 259 258 258 258 257 255 252 250 250 253 255 256 255 253 251 250 250 251 254 257 259 260 260 261 262 265 266 264 261 259 257 256 256 256 259 262 267 272 275 277 278 278 276 273 269
268 268 268 269 269 270 270 268 266 264 263 264 265 266 266 266 265 263 262 260 259 258 257 257 256 256 256 256 257 257 258 258 258 259 259 260 260 260 260 260 259 258 257 256 256 255 253 249 246 245 248 250 252 251 249 248 248 249 251 254 256 257 258 259 261 266 270 270 268 263 260 257 255 255 256 258 262 267 271 274 275 276 275 272 269 264
268 268 269 269 269 269 269 269 268 267 266 265 265 265 265 264 263 261 260 259 258 258 258 257 257 257 257 257 257 258 258 258 258 258 259 259 259 259 259 259 259 257 256 255 254 253 250 246 243 243 245 247 248 248 246 246 248 251 253 255 255 256 257 259 264 269 273 274 271 267 262 258 255 254 256 259 263 268 271 273 274 273 271 268 264 259
267 268 268 269 269 269 269 269 269 269 268 268 267 267 266 264 262 260 259 258 257 257 258 258 258 258 258 258 257 257 258 258 258 258 259 259 259 259 259 259 258 256 255 253 252 251 249 245 243 243 245 246 246 246 246 247 251 254 255 256 256 257 259 263 268 273 275 275 273 269 264 259 256 255 257 260 264 268 271 272 272 270 266 262 258 254
266 266 267 267 268 268 268 269 269 269 269 269 268 267 266 264 262 259 258 257 256 256 257 257 258 258 258 258 257 257 257 257 258 258 258 258 258 258 258 258 257 255 253 252 251 250 248 247 246 245 246 246 245 245 246 249 253 255 256 257 258 261 264 269 272 275 275 274 272 268 263 259 256 256 258 262 265 268 270 270 269 266 261 257 252 248
265 265 266 266 266 267 267 268 268 268 269 269 269 268 266 264 261 258 257 256 255 255 255 255 257 257 257 257 257 257 256 257 257 257 258 258 258 258 257 256 255 253 251 250 250 249 249 248 248 247 247 246 244 244 246 250 253 255 257 259 262 265 269 272 274 274 274 272 270 266 261 257 256 257 260 263 266 268 269 268 265 261 256 251 246 242
265 265 265 265 265 266 266 266 267 268 268 268 269 268 266 262 259 256 255 254 254 254 254 254 255 256 257 257 257 257 256 256 256 257 257 257 257 257 257 255 253 251 250 249 249 250 250 250 249 249 248 245 243 243 245 248 252 255 258 261 264 267 270 272 272 272 271 269 266 262 258 255 255 257 260 263 266 267 267 265 260 255 250 245 241 237
265 264 264 264 264 265 265 265 266 266 267 267 267 267 265 262 258 256 254 253 253 253 253 253 254 254 255 256 257 256 256 256 256 256 256 256 257 256 256 254 253 251 251 251 252 252 252 251 251 250 248 245 242 241 243 247 250 254 258 261 264 267 269 270 269 269 267 266 263 260 256 254 255 258 261 263 265 266 264 259 254 249 245 241 237 233
264 264 264 264 264 264 264 265 265 265 265 266 266 265 263 261 258 256 253 252 252 252 252 253 253 254 255 256 256 256 256 256 256 256 256 256 256 256 256 254 252 251 252 253 254 254 254 253 252 251 249 246 244 243 243 246 249 253 257 260 263 265 266 267 266 266 264 263 260 258 255 254 255 258 261 263 264 263 259 253 248 243 240 237 234 231
264 264 264 263 263 263 264 264 264 264 264 264 264 264 263 261 259 256 253 251 251 251 252 252 252 253 254 255 256 256 256 256 256 256 256 256 256 255 255 253 250 248 249 251 252 254 254 253 252 251 249 248 246 245 245 246 249 252 255 258 260 262 264 264 264 263 262 261 259 257 255 255 256 258 260 262 261 258 253 247 242 238 236 235 232 229
264 264 263 263 263 263 263 263 263 263 262 262 262 262 262 260 258 256 253 251 250 250 251 251 252 252 253 254 255 256 256 256 256 256 255 255 255 254 253 251 248 245 245 247 250 252 253 252 251 250 249 249 248 248 248 248 250 252 255 257 259 261 263 263 263 262 261 259 257 256 255 255 256 258 259 259 257 253 247 241 236 234 234 233 231 229
264 264 263 263 263 263 262 262 262 262 261 261 261 261 260 259 257 255 253 251 249 249 250 251 251 252 253 253 255 255 255 255 255 255 254 253 253 253 251 249 246 243 243 245 248 250 251 250 249 249 250 251 252 252 252 253 253 254 256 258 260 262 263 263 262 261 259 258 256 255 255 255 256 257 257 256 252 247 241 236 232 231 231 232 230 228
264 264 264 263 263 262 262 261 261 261 260 259 258 258 258 257 256 254 253 251 249 249 249 250 250 251 252 252 253 253 253 253 253 252 252 251 251 251 250 248 246 243 243 245 247 249 249 249 249 250 252 254 256 256 256 256 256 256 257 259 261 263 264 264 262 260 258 256 255 254 254 254 254 255 254 251 246 241 236 232 230 230 230 231 229 226
264 264 264 264 263 262 262 261 260 259 258 257 256 256 256 256 255 254 252 251 249 248 248 249 249 250 251 251 251 251 251 251 251 251 250 249 249 249 248 247 246 245 244 246 247 248 248 248 248 249 251 253 255 256 256 255 254 255 257 259 262 264 264 263 261 258 256 255 254 253 252 252 252 252 249 246 241 236 232 230 229 229 230 230 228 224
263 263 264 264 263 263 262 261 260 258 257 256 255 255 254 254 254 253 252 250 248 247 247 247 248 248 248 248 248 249 249 249 249 249 248 248 247 247 247 247 246 245 245 246 247 247 247 247 246 245 246 248 250 251 252 252 253 254 256 259 262 264 264 262 259 256 254 253 252 251 251 250 250 248 245 241 236 232 230 229 229 230 230 229 226 222
262 263 263 263 262 262 261 260 259 258 256 255 254 253 253 253 252 251 250 248 247 246 246 246 246 246 247 247 247 247 246 247 247 247 247 247 247 247 247 247 247 247 247 248 248 248 247 246 244 243 244 245 246 248 249 251 252 254 257 260 262 263 262 259 256 253 252 250 249 249 248 248 246 244 241 237 233 231 229 229 230 230 229 227 223 220
262 262 262 262 262 261 261 259 258 257 255 254 253 252 252 251 250 249 248 247 246 245 245 245 246 246 246 246 246 245 245 245 246 246 247 247 247 248 248 248 248 249 249 250 250 249 248 246 244 243 243 244 245 247 249 251 253 255 257 259 261 261 259 256 253 251 249 248 247 247 246 245 243 240 237 233 231 229 229 229 229 228 226 224 220 217
261 261 261 262 261 261 260 259 257 256 255 253 252 251 250 250 249 248 247 246 245 245 245 245 245 245 245 245 245 245 245 245 245 246 247 247 248 248 249 250 250 250 250 250 250 249 248 246 245 245 245 245 246 247 249 251 253 255 257 258 258 258 256 253 250 248 247 245 245 245 244 241 239 236 233 230 228 227 227 226 225 224 221 219 217 215
260 260 261 261 261 260 259 258 256 255 254 252 251 250 249 248 248 247 246 245 244 244 245 245 245 245 245 245 245 245 245 245 245 246 247 248 249 249 250 251 251 251 251 250 250 249 248 246 246 245 246 246 247 248 249 251 253 254 255 256 255 254 252 250 247 245 244 243 243 242 241 237 234 231 228 226 223 222 221 219 218 216 215 214 213 213
258 259 259 259 259 259 258 257 255 254 252 251 249 248 248 247 247 246 245 244 244 244 245 245 245 245 244 244 244 244 245 245 246 246 248 248 249 250 250 251 251 251 251 250 249 248 247 246 246 245 246 246 247 248 249 250 251 252 253 253 252 251 249 247 244 242 241 241 242 240 237 233 229 226 223 219 216 213 211 210 208 208 208 210 211 214
257 257 258 258 258 257 257 256 254 252 251 249 248 247 246 246 246 246 245 245 244 244 244 245 245 244 244 243 244 244 244 245 246 246 247 249 249 249 250 250 251 251 250 250 249 248 247 246 246 245 245 246 246 247 247 248 249 250 250 250 249 248 246 244 241 240 240 241 240 237 232 228 224 221 217 212 209 206 203 202 201 201 203 206 210 215
255 255 256 256 256 256 256 255 253 251 249 247 246 246 245 246 246 246 246 245 244 244 244 244 244 244 243 243 243 243 243 244 245 246 247 248 249 249 250 250 250 250 250 249 248 248 247 247 246 245 245 245 245 245 246 246 247 247 247 246 246 244 242 240 239 239 240 241 239 234 228 224 221 216 211 207 203 201 199 198 198 199 201 205 210 216
253 254 254 254 254 255 255 254 253 251 248 246 245 244 244 245 245 245 245 245 244 244 244 244 244 243 243 242 242 242 242 243 244 245 247 248 248 249 249 249 250 250 250 249 248 248 248 248 247 246 245 245 245 244 244 244 244 243 243 242 242 240 239 238 237 239 240 239 235 229 223 221 217 213 208 204 201 199 198 198 198 199 202 205 211 218
252 252 252 252 253 253 253 253 253 251 248 246 244 243 243 243 244 245 245 245 244 244 244 244 243 243 242 241 241 242 242 243 244 245 247 248 249 249 250 250 250 250 250 249 248 248 248 248 248 247 246 245 244 243 243 242 240 239 239 238 238 238 237 237 238 239 239 236 230 223 220 218 215 210 206 203 201 200 199 199 200 202 205 209 214 220
250 250 250 251 251 252 252 253 253 252 249 246 244 242 242 242 243 244 245 245 245 244 244 243 243 242 241 241 241 241 242 242 244 246 247 248 249 249 249 249 250 250 250 250 249 248 248 248 247 246 245 243 242 242 241 239 238 236 236 236 237 237 237 237 238 239 237 230 223 217 216 215 212 209 206 205 203 202 202 202 203 205 209 213 217 221
249 249 250 250 250 251 251 252 253 252 250 248 244 242 241 241 243 244 245 245 245 244 243 242 242 241 240 240 240 240 240 241 243 244 246 247 247 248 248 248 248 248 248 248 248 247 246 246 245 244 242 240 239 239 238 237 235 234 235 236 237 237 237 237 237 236 232 223 216 212 212 211 210 208 208 207 207 206 205 204 205 208 212 216 219 220
250 250 250 250 250 251 251 252 252 252 251 249 246 243 242 241 242 244 246 246 246 244 243 241 240 239 239 239 239 239 239 240 241 242 244 245 245 246 246 246 246 246 245 245 245 245 244 244 242 240 238 237 235 235 234 234 233 234 234 236 236 237 236 235 234 231 225 216 210 207 207 207 207 208 209 210 210 208 207 206 207 209 213 216 218 218
251 251 251 251 251 251 252 252 252 253 252 250 248 245 243 242 242 244 246 247 247 245 242 241 239 238 238 238 238 238 238 239 240 241 243 244 244 245 245 245 244 244 243 243 242 242 242 241 239 237 234 233 231 231 230 231 232 233 234 234 235 234 233 231 229 224 217 209 204 203 203 204 205 208 211 212 211 209 207 207 207 210 212 215 216 215
252 252 252 252 252 252 253 253 253 253 253 252 250 247 244 242 242 244 246 248 247 245 242 240 238 237 237 236 236 236 237 238 239 241 242 243 243 244 244 243 243 242 240 240 240 239 239 238 236 234 231 230 229 229 229 229 230 232 232 232 231 230 228 225 221 215 208 203 201 200 201 203 206 209 211 211 210 208 206 206 207 209 211 212 213 212
253 253 253 253 253 254 254 254 254 254 254 253 251 249 246 244 243 243 245 247 248 245 241 238 237 236 235 235 234 235 235 236 238 239 240 241 242 242 242 241 241 239 238 237 236 236 235 233 231 229 228 227 228 229 229 230 230 230 230 228 226 224 221 217 211 206 201 199 199 200 202 205 208 210 210 209 207 205 204 204 206 207 209 210 210 210
253 253 254 254 254 255 255 255 255 255 254 253 252 249 247 245 243 243 245 247 247 245 241 237 235 234 233 233 233 233 234 235 237 238 239 240 241 240 240 239 238 237 235 234 233 232 231 229 227 225 225 225 226 228 229 229 229 227 225 223 220 217 212 208 204 200 199 200 201 203 204 206 208 208 208 206 204 202 202 203 204 206 207 207 207 208
253 253 254 255 255 256 256 256 256 255 254 253 251 250 248 246 244 244 245 247 247 246 242 237 234 232 231 231 231 232 233 235 236 238 239 239 240 239 238 237 236 234 233 231 230 228 227 225 224 223 223 225 226 227 227 226 224 221 219 216 213 209 205 202 201 201 202 203 204 205 205 206 206 205 204 202 201 201 201 202 203 204 205 206 206 207
253 253 254 255 256 256 256 255 255 254 252 252 251 250 248 247 245 245 245 247 249 248 243 237 233 230 228 228 229 231 232 234 235 236 237 238 238 238 237 236 235 233 230 228 226 225 224 222 221 221 222 224 225 225 223 221 218 215 212 209 206 204 202 202 203 204 204 205 204 204 204 204 203 202 201 200 199 200 200 202 203 204 205 205 206 207
253 253 254 255 255 255 255 254 253 252 251 251 250 249 248 247 247 247 247 249 251 249 244 237 232 229 226 226 227 229 231 232 234 234 235 235 236 236 236 235 233 231 228 226 224 222 221 220 219 218 219 219 219 218 216 213 211 209 206 204 203 202 203 204 204 204 204 203 202 201 201 200 199 199 198 198 198 199 200 202 203 204 205 207 208 210
253 254 254 255 255 254 253 252 251 251 250 249 249 248 248 247 248 249 251 253 253 249 242 235 231 228 225 225 226 227 229 230 231 232 233 233 233 233 233 232 231 229 226 224 222 220 219 217 217 216 215 214 212 210 208 206 205 204 202 202 202 202 203 203 202 202 200 199 198 198 197 197 197 196 196 197 197 199 201 202 204 206 208 209 211 213
253 254 254 254 253 251 250 250 249 249 248 248 248 247 247 247 248 250 252 253 251 245 238 233 229 226 223 223 224 226 227 228 229 229 230 230 230 230 229 228 226 225 223 221 219 218 217 215 214 212 210 208 206 204 202 201 201 201 200 200 201 201 201 199 198 197 196 195 195 195 195 195 195 195 195 196 198 199 202 204 206 208 210 212 213 214
252 253 253 252 250 249 248 247 247 247 247 247 246 246 247 247 248 249 250 249 245 239 233 229 225 222 220 219 221 223 224 225 225 226 227 227 227 226 224 223 221 220 219 218 217 216 214 212 209 207 205 203 201 200 199 199 199 199 199 198 198 198 196 195 194 194 193 193 193 193 193 194 194 195 196 197 199 201 204 206 209 210 212 213 214 214
251 251 251 250 248 247 246 245 245 245 246 246 246 246 246 246 246 247 247 244 239 233 227 223 220 216 214 214 216 219 220 221 222 223 223 223 223 222 219 217 216 215 215 215 214 212 210 207 204 202 201 200 198 197 197 197 197 197 197 196 195 193 192 191 191 190 190 191 192 192 193 194 195 196 198 200 202 204 207 209 211 212 213 214 214 214
249 249 248 247 246 245 244 244 244 244 245 245 245 245 245 244 245 245 243 239 233 227 222 218 215 212 210 210 212 214 216 218 219 219 219 219 218 217 214 212 211 211 211 209 208 206 203 201 200 199 198 197 196 195 195 195 195 195 194 192 191 190 190 189 189 188 188 189 191 192 194 195 197 199 201 203 205 207 209 211 212 213 213 214 214 215
247 247 246 245 243 243 243 243 244 244 245 245 244 244 243 243 243 242 240 235 228 222 217 214 211 209 207 207 209 211 213 215 216 216 216 215 214 212 210 208 207 206 205 204 202 200 198 197 196 196 195 195 194 193 193 193 193 192 191 189 189 189 189 189 189 188 188 189 191 193 195 197 199 201 204 206 208 209 211 212 213 214 214 214 215 216
244 244 243 242 242 242 243 243 244 244 244 244 243 243 242 242 241 240 236 230 224 218 214 212 209 207 205 205 207 210 212 214 215 215 214 212 211 208 206 204 203 201 200 199 197 196 195 195 194 193 192 192 191 191 191 191 190 189 188 187 187 187 188 188 189 190 190 191 193 195 197 200 202 204 206 208 209 211 212 213 214 214 215 215 215 216
241 241 241 241 242 243 243 243 243 242 242 241 241 241 240 240 239 237 232 226 220 215 213 210 207 204 203 204 205 208 210 212 213 213 211 209 207 204 202 200 199 198 197 196 195 194 194 194 193 192 190 189 188 188 188 187 187 187 187 186 186 186 187 188 190 192 193 195 197 199 200 202 204 206 208 210 211 212 213 214 214 215 215 215 216 217
240 240 240 241 242 243 242 241 240 240 239 239 239 239 238 238 236 232 227 221 217 213 211 208 204 202 202 203 205 207 209 210 210 209 207 204 201 199 198 197 196 195 195 194 194 193 193 192 191 190 189 188 187 185 184 184 185 186 186 187 187 187 188 189 192 194 196 198 200 202 204 205 207 209 211 211 212 213 214 214 214 215 215 216 217 218
240 241 242 243 243 242 240 239 238 238 238 238 237 236 235 233 231 227 222 218 214 212 209 205 201 200 201 202 204 206 208 208 207 204 201 198 196 195 194 194 194 194 194 193 193 193 192 191 190 189 188 188 187 186 185 183 184 185 186 188 189 191 191 193 195 197 199 201 202 204 206 209 211 212 213 214 214 214 215 214 214 215 216 217 219 221
Height
3041 3041 3041 3041 3042 3042 3042 3043 3044 3044 3043 3043 3043 3042 3042 3042 3042 3042 3041 3041 3042 3042 3041 3041 3041 3041 3041 3041 3041 3041 3042 3042 3043 3044 3044 3045 3045 3046 3046 3046 3047 3047 3047 3047 3047 3048 3048 3048 3049 3050 3050 3051 3051 3051 3052 3052 3053 3053 3053 3052 3052 3052 3052 3052 3052 3053 3053 3053 3053 3052 3052 3052 3052 3052 3052 3053 3053 3053 3053 3053 3053 3053 3052 3051 3051 3051
3039 3038 3038 3039 3039 3040 3040 3040 3040 3040 3040 3040 3040 3040 3039 3039 3039 3039 3039 3040 3040 3039 3039 3039 3039 3039 3038 3038 3039 3039 3040 3040 3041 3041 3042 3043 3043 3044 3044 3044 3045 3045 3045 3045 3045 3045 3045 3046 3046 3047 3048 3048 3049 3049 3049 3050 3050 3051 3051 3051 3050 3050 3050 3050 3050 3050 3051 3051 3051 3050 3050 3050 3050 3050 3051 3051 3051 3051 3051 3051 3051 3051 3050 3050 3050 3049
3036 3036 3035 3036 3036 3037 3037 3037 3038 3038 3037 3037 3037 3037 3037 3037 3037 3037 3037 3037 3037 3037 3036 3036 3036 3036 3036 3036 3036 3037 3037 3038 3039 3039 3040 3040 3041 3041 3042 3042 3042 3042 3043 3043 3043 3043 3043 3044 3044 3045 3045 3046 3046 3046 3047 3048 3048 3049 3049 3049 3049 3049 3049 3049 3049 3049 3049 3049 3049 3049 3049 3049 3049 3049 3049 3049 3049 3049 3049 3049 3049 3049 3049 3048 3048 3048
3032 3032 3032 3033 3034 3034 3034 3035 3035 3035 3035 3035 3035 3034 3035 3035 3034 3034 3035 3034 3034 3034 3034 3034 3034 3034 3034 3034 3035 3035 3035 3036 3036 3037 3038 3038 3039 3039 3040 3040 3040 3040 3040 3040 3041 3041 3041 3041 3042 3042 3043 3043 3044 3044 3045 3046 3046 3046 3046 3047 3047 3047 3047 3047 3047 3047 3048 3048 3047 3047 3047 3047 3047 3047 3047 3047 3047 3047 3047 3047 3047 3047 3047 3046 3046 3046
3028 3029 3029 3030 3030 3030 3031 3032 3032 3032 3032 3032 3032 3032 3032 3032 3032 3032 3032 3032 3032 3031 3031 3031 3031 3031 3032 3032 3032 3033 3033 3034 3034 3035 3035 3036 3036 3037 3037 3037 3038 3038 3038 3038 3038 3039 3039 3040 3040 3040 3041 3041 3042 3042 3043 3044 3044 3044 3044 3045 3045 3045 3045 3045 3045 3045 3045 3046 3045 3045 3045 3045 3045 3045 3045 3045 3045 3045 3046 3045 3045 3045 3045 3045 3045 3045
3025 3025 3025 3026 3026 3027 3028 3028 3029 3030 3030 3029 3029 3029 3030 3030 3030 3030 3030 3030 3029 3029 3029 3029 3029 3029 3030 3030 3030 3031 3031 3031 3032 3032 3033 3033 3034 3034 3035 3035 3035 3035 3036 3036 3036 3036 3037 3037 3038 3038 3039 3039 3040 3040 3041 3041 3041 3042 3042 3043 3043 3043 3043 3043 3043 3043 3044 3044 3044 3044 3043 3043 3043 3043 3043 3043 3044 3044 3044 3044 3044 3044 3043 3043 3043 3043
3020 3021 3022 3022 3022 3023 3025 3025 3026 3027 3027 3027 3026 3027 3027 3027 3027 3027 3027 3027 3027 3027 3027 3027 3027 3027 3027 3028 3028 3029 3029 3029 3030 3030 3030 3031 3031 3032 3032 3032 3033 3033 3034 3034 3034 3034 3035 3035 3036 3036 3037 3037 3038 3039 3039 3039 3039 3040 3040 3040 3041 3041 3041 3041 3041 3041 3041 3041 3041 3041 3041 3041 3041 3041 3041 3041 3042 3042 3042 3042 3042 3042 3042 3041 3041 3042
3016 3017 3018 3018 3019 3020 3020 3021 3022 3023 3024 3024 3024 3024 3024 3025 3025 3025 3025 3025 3025 3025 3025 3025 3025 3025 3025 3025 3026 3026 3026 3027 3027 3028 3028 3029 3029 3030 3030 3030 3030 3031 3031 3031 3032 3032 3032 3033 3034 3034 3035 3036 3036 3036 3037 3037 3037 3038 3038 3038 3039 3039 3039 3039 3039 3039 3039 3039 3039 3040 3040 3040 3040 3040 3040 3040 3040 3040 3040 3040 3040 3040 3040 3040 3040 3040
3013 3013 3013 3014 3015 3016 3016 3017 3019 3020 3020 3020 3020 3021 3021 3022 3022 3022 3022 3022 3023 3023 3023 3022 3022 3023 3023 3023 3023 3024 3024 3024 3025 3025 3026 3026 3027 3027 3028 3028 3028 3029 3029 3029 3029 3030 3030 3031 3031 3032 3033 3034 3034 3034 3035 3035 3035 3036 3036 3036 3037 3037 3037 3037 3037 3037 3037 3037 3037 3037 3037 3038 3038 3038 3038 3038 3038 3038 3038 3038 3038 3038 3038 3038 3038 3038
3010 3010 3010 3010 3011 3012 3013 3013 3014 3016 3017 3017 3017 3018 3018 3019 3019 3020 3020 3020 3020 3020 3020 3020 3020 3020 3020 3021 3021 3021 3021 3022 3022 3023 3023 3024 3024 3025 3025 3025 3026 3026 3026 3026 3027 3027 3028 3028 3029 3030 3030 3031 3032 3032 3033 3033 3033 3034 3034 3034 3034 3035 3035 3035 3035 3035 3035 3035 3035 3035 3035 3035 3036 3036 3036 3036 3036 3036 3036 3036 3036 3036 3036 3036 3036 3037
3006 3007 3007 3007 3007 3008 3009 3009 3010 3011 3013 3014 3014 3014 3015 3016 3017 3017 3017 3017 3018 3018 3017 3017 3017 3017 3017 3018 3018 3018 3019 3019 3020 3020 3021 3021 3022 3022 3022 3023 3023 3024 3024 3024 3025 3025 3025 3026 3027 3027 3028 3029 3029 3030 3030 3030 3031 3031 3031 3032 3032 3032 3032 3032 3032 3032 3032 3033 3033 3033 3033 3034 3034 3034 3034 3034 3034 3034 3034 3034 3035 3035 3035 3035 3035 3035
3003 3003 3003 3003 3003 3004 3005 3005 3006 3007 3009 3010 3010 3011 3012 3013 3014 3014 3014 3015 3015 3015 3015 3014 3014 3014 3014 3015 3015 3015 3016 3016 3017 3018 3018 3019 3019 3020 3020 3020 3021 3021 3022 3022 3022 3023 3023 3024 3024 3025 3025 3026 3027 3028 3028 3028 3029 3029 3029 3030 3030 3030 3030 3030 3030 3030 3030 3030 3030 3031 3031 3031 3031 3032 3032 3032 3032 3032 3032 3032 3032 3033 3033 3033 3033 3033
2999 2999 2999 2999 3000 3000 3000 3001 3002 3003 3005 3005 3006 3007 3008 3010 3010 3010 3010 3011 3011 3012 3011 3011 3010 3011 3011 3011 3012 3012 3013 3014 3014 3015 3015 3016 3016 3017 3017 3018 3018 3019 3019 3020 3020 3020 3021 3021 3022 3023 3023 3024 3025 3025 3025 3026 3026 3026 3027 3027 3027 3027 3027 3027 3028 3028 3028 3028 3028 3029 3029 3029 3030 3030 3030 3030 3030 3030 3030 3030 3030 3031 3031 3031 3031 3032
2995 2995 2995 2995 2995 2996 2997 2998 2998 3000 3000 3002 3003 3004 3005 3005 3006 3006 3007 3007 3008 3008 3008 3008 3007 3007 3008 3008 3009 3009 3010 3011 3012 3012 3013 3013 3014 3014 3015 3015 3016 3016 3017 3017 3018 3018 3018 3019 3020 3020 3021 3021 3022 3022 3023 3023 3024 3024 3025 3025 3025 3025 3025 3025 3025 3025 3026 3026 3026 3026 3027 3027 3027 3028 3028 3028 3028 3028 3028 3028 3029 3029 3029 3030 3030 3030
2991 2991 2991 2991 2992 2992 2993 2994 2995 2995 2997 2998 2999 3000 3000 3001 3002 3003 3003 3004 3004 3005 3005 3004 3004 3004 3005 3005 3006 3006 3007 3008 3009 3010 3010 3011 3011 3012 3012 3012 3013 3014 3014 3015 3015 3015 3016 3017 3017 3018 3018 3019 3019 3020 3020 3021 3021 3022 3022 3022 3022 3023 3023 3023 3023 3023 3023 3024 3024 3024 3025 3025 3025 3025 3026 3026 3026 3026 3026 3027 3027 3027 3027 3028 3028 3029
2986 2987 2987 2987 2988 2989 2989 2990 2991 2992 2993 2994 2995 2996 2996 2997 2998 2999 3000 3000 3000 3001 3001 3001 3001 3001 3001 3002 3003 3004 3004 3005 3006 3007 3008 3008 3009 3009 3010 3010 3010 3011 3012 3012 3013 3013 3014 3014 3015 3015 3016 3016 3017 3017 3018 3018 3019 3020 3020 3020 3020 3020 3020 3021 3021 3021 3021 3021 3022 3022 3022 3023 3023 3024 3024 3024 3024 3024 3025 3025 3025 3025 3026 3026 3027 3028
2982 2982 2983 2983 2984 2985 2986 2986 2987 2988 2989 2990 2991 2992 2992 2993 2994 2995 2995 2996 2997 2997 2997 2997 2997 2997 2998 2999 3000 3001 3002 3002 3003 3004 3005 3005 3006 3006 3007 3007 3008 3009 3010 3010 3010 3011 3011 3012 3012 3013 3013 3014 3014 3015 3015 3016 3017 3017 3017 3018 3018 3018 3018 3019 3019 3019 3019 3019 3020 3020 3020 3021 3021 3021 3022 3022 3022 3022 3023 3023 3024 3024 3025 3025 3025 3026
2977 2978 2978 2979 2980 2981 2982 2983 2983 2984 2985 2986 2987 2988 2989 2989 2990 2990 2991 2992 2993 2993 2993 2994 2994 2994 2995 2996 2997 2998 3000 3000 3000 3001 3002 3003 3003 3004 3004 3005 3005 3006 3007 3008 3008 3009 3009 3010 3010 3010 3011 3011 3011 3012 3013 3014 3014 3015 3015 3015 3015 3016 3016 3016 3016 3016 3017 3017 3017 3018 3018 3019 3019 3020 3020 3020 3020 3020 3021 3021 3022 3022 3023 3024 3024 3025
2972 2973 2974 2975 2976 2977 2978 2978 2979 2980 2981 2982 2983 2984 2984 2985 2986 2986 2987 2988 2989 2990 2990 2990 2990 2991 2992 2993 2994 2995 2996 2997 2998 2998 2999 3000 3000 3001 3001 3002 3003 3004 3005 3005 3006 3006 3006 3007 3007 3008 3008 3008 3009 3009 3010 3011 3011 3012 3012 3013 3013 3013 3014 3014 3014 3014 3015 3015 3015 3016 3016 3016 3017 3017 3018 3018 3018 3019 3019 3020 3020 3021 3021 3022 3023 3024
2967 2968 2970 2971 2972 2972 2973 2974 2975 2976 2977 2978 2979 2979 2980 2980 2981 2982 2983 2984 2985 2985 2986 2987 2987 2988 2989 2990 2991 2992 2993 2994 2994 2995 2996 2997 2997 2998 2999 3000 3000 3001 3002 3003 3003 3003 3004 3005 3005 3005 3005 3005 3006 3006 3007 3008 3009 3010 3010 3010 3010 3011 3011 3011 3012 3012 3012 3013 3013 3014 3014 3015 3015 3015 3015 3016 3016 3017 3017 3018 3019 3019 3020 3020 3021 3022
2963 2964 2965 2966 2967 2968 2969 2970 2971 2972 2973 2973 2974 2975 2975 2976 2978 2979 2979 2980 2981 2982 2983 2983 2984 2985 2986 2987 2988 2989 2990 2990 2991 2992 2993 2994 2994 2995 2995 2996 2997 2998 2999 3000 3000 3001 3001 3002 3003 3003 3003 3003 3003 3004 3005 3005 3006 3007 3007 3008 3008 3008 3009 3009 3010 3010 3010 3010 3011 3011 3012 3012 3013 3013 3014 3014 3015 3015 3016 3016 3017 3018 3019 3019 3020 3021
2958 2959 2961 2962 2963 2963 2964 2966 2967 2968 2968 2969 2970 2970 2971 2973 2974 2975 2975 2976 2977 2978 2979 2979 2980 2981 2982 2983 2984 2985 2986 2987 2987 2988 2989 2990 2991 2991 2992 2993 2994 2995 2996 2997 2997 2998 2999 3000 3000 3001 3001 3001 3001 3001 3002 3003 3004 3004 3004 3005 3005 3006 3006 3007 3007 3007 3008 3008 3009 3009 3010 3010 3011 3011 3012 3012 3013 3013 3014 3015 3015 3016 3017 3018 3019 3020
2954 2955 2956 2957 2958 2959 2960 2961 2962 2963 2964 2965 2965 2966 2967 2969 2970 2970 2971 2972 2973 2973 2974 2975 2976 2977 2978 2979 2980 2981 2982 2983 2984 2985 2986 2986 2987 2988 2989 2990 2991 2992 2993 2994 2995 2995 2996 2997 2998 2998 2998 2999 2999 2999 3000 3000 3001 3001 3002 3002 3003 3003 3004 3004 3005 3005 3005 3006 3006 3007 3008 3008 3009 3009 3010 3010 3011 3012 3013 3013 3014 3015 3016 3017 3017 3019
2949 2950 2952 2953 2954 2955 2956 2957 2958 2958 2959 2960 2961 2962 2963 2964 2965 2966 2967 2967 2968 2969 2970 2971 2972 2973 2974 2975 2976 2977 2979 2980 2981 2982 2982 2983 2984 2985 2986 2987 2988 2989 2990 2991 2992 2992 2993 2994 2995 2995 2995 2996 2996 2996 2997 2997 2998 2998 2999 3000 3000 3001 3001 3002 3002 3003 3003 3004 3004 3005 3005 3006 3007 3007 3008 3009 3009 3010 3011 3012 3013 3013 3014 3015 3016 3017
2945 2946 2947 2948 2950 2950 2951 2952 2953 2954 2955 2956 2957 2958 2959 2960 2961 2962 2962 2963 2964 2965 2966 2967 2969 2970 2971 2972 2973 2974 2975 2977 2978 2978 2979 2980 2981 2982 2983 2984 2985 2985 2986 2988 2989 2990 2990 2991 2992 2992 2993 2993 2993 2994 2994 2995 2995 2995 2996 2997 2998 2998 2999 2999 3000 3000 3001 3001 3002 3003 3004 3004 3005 3005 3006 3007 3008 3009 3009 3010 3011 3012 3013 3014 3015 3016
2941 2942 2943 2944 2945 2946 2947 2948 2949 2949 2950 2951 2953 2954 2955 2955 2956 2957 2958 2959 2960 2962 2963 2964 2965 2966 2967 2969 2970 2971 2972 2974 2975 2975 2976 2977 2978 2979 2980 2981 2981 2982 2983 2985 2986 2987 2987 2988 2989 2989 2990 2990 2990 2991 2991 2992 2992 2993 2994 2994 2995 2996 2996 2997 2998 2998 2999 3000 3000 3001 3001 3002 3003 3004 3005 3005 3006 3007 3008 3009 3010 3010 3012 3013 3014 3015
2937 2938 2939 2940 2940 2941 2942 2943 2944 2945 2946 2947 2948 2949 2950 2951 2952 2952 2953 2955 2957 2958 2959 2960 2961 2962 2964 2965 2966 2968 2969 2970 2971 2972 2973 2974 2975 2976 2977 2978 2978 2979 2980 2982 2983 2983 2984 2985 2985 2986 2987 2987 2987 2988 2989 2989 2990 2990 2991 2992 2993 2993 2994 2995 2995 2996 2997 2997 2998 2999 3000 3000 3001 3002 3003 3004 3005 3005 3006 3007 3008 3009 3010 3011 3012 3014
2933 2934 2935 2935 2936 2937 2938 2939 2940 2940 2942 2943 2944 2945 2946 2947 2947 2948 2949 2951 2954 2955 2955 2956 2957 2959 2960 2961 2963 2965 2965 2967 2968 2969 2970 2970 2971 2973 2974 2975 2975 2976 2977 2978 2980 2980 2981 2981 2982 2983 2984 2984 2984 2985 2986 2986 2987 2988 2989 2990 2990 2991 2992 2993 2993 2994 2995 2995 2996 2997 2997 2998 3000 3000 3001 3002 3003 3004 3005 3006 3007 3008 3009 3010 3011 3013
2929 2929 2930 2931 2932 2932 2933 2934 2935 2936 2937 2939 2940 2941 2941 2942 2943 2944 2945 2948 2950 2950 2951 2952 2954 2955 2956 2958 2960 2961 2962 2963 2964 2965 2967 2967 2968 2969 2971 2971 2972 2973 2974 2975 2976 2977 2977 2978 2979 2980 2980 2981 2981 2982 2983 2984 2985 2985 2986 2987 2988 2989 2990 2990 2991 2992 2993 2993 2994 2995 2995 2997 2998 2999 3000 3001 3002 3003 3004 3005 3006 3007 3008 3009 3010 3012
2924 2925 2926 2927 2927 2928 2929 2930 2931 2932 2933 2935 2935 2936 2937 2938 2940 2941 2942 2944 2945 2946 2947 2949 2950 2952 2953 2955 2956 2957 2958 2960 2961 2962 2963 2964 2964 2965 2967 2968 2969 2969 2970 2971 2972 2973 2974 2975 2975 2976 2977 2978 2979 2980 2980 2981 2982 2983 2984 2985 2986 2987 2988 2988 2989 2990 2990 2991 2992 2993 2994 2995 2996 2997 2998 2999 3000 3001 3002 3004 3005 3005 3007 3008 3009 3011
2920 2921 2921 2922 2923 2924 2925 2925 2926 2928 2929 2930 2931 2932 2933 2935 2936 2938 2939 2940 2941 2943 2944 2945 2947 2948 2949 2950 2952 2953 2955 2957 2958 2959 2960 2960 2961 2962 2964 2965 2965 2966 2967 2968 2969 2969 2970 2971 2972 2974 2975 2975 2976 2977 2978 2979 2980 2981 2982 2983 2984 2985 2985 2986 2987 2988 2988 2989 2990 2991 2992 2993 2995 2995 2997 2998 2999 3000 3001 3002 3003 3004 3005 3007 3008 3010
2915 2916 2916 2918 2919 2920 2921 2921 2922 2924 2925 2926 2927 2928 2930 2931 2933 2934 2935 2936 2938 2939 2941 2942 2943 2945 2946 2947 2948 2950 2952 2954 2955 2956 2956 2957 2957 2959 2960 2961 2962 2963 2964 2965 2965 2966 2967 2968 2970 2971 2972 2973 2974 2975 2976 2977 2978 2979 2980 2981 2982 2982 2983 2984 2985 2985 2986 2987 2988 2989 2990 2992 2993 2994 2995 2996 2998 2999 3000 3001 3002 3003 3004 3006 3007 3009
2910 2911 2912 2913 2915 2915 2916 2918 2919 2920 2921 2922 2924 2925 2926 2927 2929 2930 2931 2933 2934 2936 2937 2938 2940 2941 2942 2944 2945 2947 2949 2951 2952 2952 2953 2953 2954 2955 2957 2958 2959 2960 2961 2962 2962 2963 2964 2965 2967 2968 2969 2970 2972 2973 2974 2975 2976 2977 2978 2979 2980 2980 2981 2982 2982 2983 2984 2985 2986 2988 2989 2990 2991 2993 2994 2995 2996 2998 2999 3000 3001 3002 3003 3005 3006 3007
2905 2906 2907 2909 2910 2911 2912 2914 2915 2916 2917 2919 2920 2921 2922 2924 2925 2926 2928 2929 2931 2932 2934 2935 2936 2937 2939 2940 2942 2944 2945 2947 2948 2949 2949 2949 2950 2951 2953 2954 2955 2956 2957 2958 2959 2960 2961 2962 2964 2965 2967 2968 2969 2970 2971 2972 2973 2974 2975 2976 2977 2978 2979 2980 2980 2981 2982 2983 2984 2986 2987 2989 2990 2991 2993 2994 2995 2996 2997 2998 2999 3000 3002 3003 3005 3006
2900 2901 2902 2904 2905 2907 2908 2910 2911 2912 2914 2915 2917 2918 2920 2920 2922 2923 2924 2926 2927 2929 2930 2931 2933 2934 2935 2937 2938 2940 2942 2944 2945 2945 2945 2945 2946 2948 2950 2950 2952 2953 2954 2955 2956 2957 2958 2960 2961 2963 2964 2965 2966 2967 2969 2970 2971 2972 2973 2974 2975 2975 2976 2977 2978 2979 2980 2981 2983 2984 2986 2987 2989 2990 2991 2993 2994 2995 2996 2997 2998 2999 3000 3002 3003 3004
2895 2896 2897 2899 2901 2902 2904 2905 2907 2909 2910 2912 2913 2915 2916 2918 2919 2920 2921 2922 2924 2925 2927 2928 2929 2930 2931 2933 2935 2936 2938 2940 2941 2941 2941 2942 2943 2945 2946 2947 2948 2950 2951 2952 2953 2954 2955 2957 2958 2960 2961 2962 2963 2965 2966 2967 2968 2970 2970 2971 2972 2973 2974 2975 2976 2977 2978 2980 2981 2983 2984 2986 2987 2989 2990 2991 2992 2993 2995 2995 2997 2998 2999 3000 3002 3003
2889 2891 2892 2895 2896 2898 2900 2902 2903 2905 2906 2908 2910 2912 2913 2914 2915 2916 2918 2919 2920 2922 2923 2924 2925 2926 2928 2930 2931 2933 2935 2936 2937 2937 2938 2939 2940 2941 2943 2944 2945 2946 2948 2949 2950 2951 2953 2954 2956 2957 2958 2959 2960 2962 2964 2965 2966 2967 2968 2969 2970 2971 2972 2973 2974 2975 2977 2978 2980 2981 2983 2984 2985 2987 2988 2990 2991 2992 2993 2994 2995 2997 2998 2999 3000 3001
2884 2886 2888 2890 2892 2894 2896 2898 2900 2901 2903 2905 2906 2908 2910 2911 2912 2913 2915 2916 2917 2918 2919 2920 2921 2923 2924 2926 2928 2929 2930 2932 2933 2934 2935 2936 2937 2938 2939 2940 2942 2943 2945 2946 2947 2949 2950 2951 2953 2954 2955 2957 2958 2960 2961 2962 2964 2965 2966 2967 2968 2969 2970 2971 2973 2974 2976 2977 2979 2980 2981 2983 2984 2985 2987 2988 2989 2990 2991 2993 2994 2995 2997 2998 2999 3000
2880 2882 2884 2886 2888 2890 2893 2894 2896 2898 2899 2901 2902 2904 2906 2907 2909 2910 2911 2912 2913 2913 2915 2916 2917 2919 2920 2922 2924 2925 2927 2928 2929 2930 2931 2933 2934 2935 2936 2937 2939 2940 2942 2943 2945 2946 2947 2949 2950 2951 2953 2955 2956 2958 2959 2960 2961 2963 2964 2965 2966 2967 2969 2970 2972 2973 2975 2976 2977 2979 2980 2982 2983 2984 2985 2987 2988 2989 2990 2992 2993 2994 2995 2996 2998 2999
2876 2878 2880 2882 2885 2887 2889 2890 2892 2893 2895 2897 2898 2900 2902 2904 2905 2906 2907 2908 2908 2909 2910 2912 2913 2915 2917 2919 2920 2921 2923 2925 2926 2927 2928 2930 2931 2932 2933 2935 2936 2937 2939 2940 2941 2943 2944 2946 2947 2949 2950 2952 2954 2955 2956 2958 2959 2960 2962 2963 2964 2966 2968 2969 2970 2972 2973 2975 2976 2978 2979 2980 2982 2983 2984 2985 2987 2988 2989 2990 2992 2993 2994 2995 2997 2998
2872 2874 2876 2879 2881 2883 2885 2886 2888 2889 2891 2893 2895 2896 2898 2900 2901 2902 2903 2904 2905 2905 2907 2909 2910 2912 2913 2915 2916 2918 2920 2921 2922 2924 2925 2927 2928 2929 2930 2932 2933 2935 2936 2938 2939 2940 2942 2943 2945 2946 2948 2950 2951 2953 2955 2956 2957 2959 2960 2961 2963 2965 2967 2968 2970 2971 2972 2974 2975 2976 2978 2979 2980 2982 2983 2984 2985 2987 2988 2989 2991 2992 2993 2994 2995 2996
2869 2871 2873 2875 2877 2879 2881 2882 2884 2885 2887 2889 2891 2892 2894 2895 2897 2898 2899 2900 2901 2902 2904 2906 2907 2909 2910 2911 2912 2914 2916 2917 2919 2921 2922 2924 2925 2926 2928 2929 2931 2932 2934 2935 2936 2938 2939 2941 2942 2944 2945 2947 2949 2950 2952 2954 2955 2957 2959 2960 2962 2964 2965 2966 2968 2970 2971 2972 2974 2975 2977 2978 2979 2980 2982 2983 2984 2985 2987 2988 2990 2991 2992 2993 2994 2995
2865 2867 2869 2871 2873 2875 2877 2879 2880 2882 2884 2885 2887 2888 2890 2891 2893 2894 2895 2895 2897 2899 2901 2903 2904 2905 2906 2907 2909 2910 2913 2915 2916 2918 2919 2921 2922 2923 2925 2927 2928 2930 2931 2933 2934 2935 2937 2938 2940 2941 2943 2945 2946 2948 2950 2952 2953 2955 2957 2959 2960 2962 2963 2965 2967 2968 2970 2971 2973 2974 2975 2977 2978 2979 2980 2982 2983 2985 2986 2987 2988 2990 2991 2992 2993 2994
2862 2864 2866 2867 2869 2871 2873 2875 2876 2878 2880 2881 2883 2885 2886 2888 2889 2890 2890 2892 2893 2895 2897 2899 2900 2901 2902 2903 2905 2907 2910 2912 2914 2915 2916 2918 2920 2921 2922 2924 2926 2928 2929 2930 2932 2933 2935 2936 2938 2940 2941 2943 2945 2946 2949 2950 2952 2954 2956 2957 2959 2961 2963 2965 2966 2967 2969 2970 2972 2973 2975 2976 2977 2978 2980 2981 2982 2984 2985 2986 2987 2988 2989 2990 2991 2992
2859 2860 2862 2864 2866 2868 2870 2871 2873 2875 2876 2878 2879 2880 2882 2883 2885 2885 2886 2887 2889 2891 2893 2894 2895 2897 2897 2899 2902 2904 2907 2909 2910 2912 2914 2915 2917 2919 2920 2922 2924 2925 2927 2928 2930 2931 2933 2934 2936 2938 2940 2941 2943 2945 2947 2949 2951 2953 2955 2956 2958 2960 2962 2963 2965 2966 2968 2969 2971 2972 2974 2975 2976 2977 2979 2980 2981 2983 2984 2985 2986 2987 2988 2989 2990 2991
2855 2856 2858 2860 2862 2864 2866 2868 2870 2871 2873 2874 2875 2876 2878 2879 2880 2881 2882 2883 2885 2886 2888 2890 2891 2892 2893 2896 2899 2902 2904 2906 2908 2910 2911 2913 2915 2916 2918 2920 2921 2923 2924 2926 2928 2930 2931 2933 2935 2936 2938 2940 2942 2944 2946 2948 2950 2952 2953 2955 2957 2958 2960 2961 2963 2965 2966 2968 2970 2971 2972 2974 2975 2976 2978 2979 2980 2981 2982 2984 2985 2985 2986 2988 2989 2990
2851 2853 2855 2857 2859 2861 2863 2865 2866 2868 2869 2870 2871 2872 2874 2875 2875 2877 2878 2880 2881 2883 2885 2886 2887 2889 2890 2894 2896 2899 2901 2903 2905 2907 2909 2910 2912 2914 2915 2917 2919 2920 2922 2924 2926 2928 2930 2931 2933 2935 2937 2939 2941 2943 2945 2947 2949 2950 2952 2954 2955 2957 2959 2960 2962 2964 2965 2967 2968 2970 2971 2973 2974 2975 2976 2978 2979 2980 2981 2982 2983 2984 2985 2986 2987 2988
2848 2850 2852 2854 2856 2858 2860 2861 2863 2864 2865 2867 2868 2869 2870 2870 2871 2873 2874 2875 2877 2879 2881 2882 2884 2885 2888 2891 2894 2897 2899 2901 2903 2905 2906 2908 2910 2912 2913 2915 2917 2918 2920 2922 2924 2926 2928 2929 2931 2933 2935 2938 2940 2942 2944 2945 2947 2949 2951 2953 2955 2956 2958 2960 2961 2963 2964 2966 2967 2969 2970 2971 2973 2974 2975 2976 2977 2979 2980 2981 2982 2983 2984 2985 2985 2986
2845 2847 2849 2850 2852 2854 2856 2858 2859 2861 2862 2863 2864 2865 2865 2866 2868 2869 2870 2872 2874 2876 2878 2879 2880 2883 2885 2889 2891 2894 2897 2899 2900 2902 2904 2906 2908 2910 2911 2913 2915 2917 2919 2921 2923 2925 2926 2928 2930 2932 2934 2936 2938 2940 2942 2944 2946 2948 2950 2952 2953 2955 2957 2959 2960 2962 2963 2965 2966 2967 2969 2970 2971 2973 2974 2975 2976 2977 2978 2979 2980 2981 2982 2983 2984 2985
2842 2844 2845 2847 2849 2851 2853 2855 2856 2857 2858 2859 2860 2861 2862 2863 2864 2866 2868 2870 2872 2874 2875 2876 2878 2880 2884 2886 2889 2892 2894 2896 2898 2900 2902 2904 2906 2908 2910 2912 2914 2916 2918 2920 2922 2923 2925 2927 2929 2931 2933 2935 2936 2938 2940 2942 2945 2947 2949 2951 2952 2954 2955 2957 2959 2960 2962 2964 2965 2966 2968 2969 2970 2971 2972 2973 2975 2976 2977 2978 2979 2980 2980 2981 2982 2983
2839 2841 2843 2844 2846 2848 2850 2851 2853 2854 2855 2855 2856 2857 2858 2860 2861 2863 2865 2867 2870 2871 2873 2874 2876 2879 2881 2885 2887 2890 2891 2893 2895 2898 2900 2902 2904 2906 2909 2911 2913 2915 2917 2919 2920 2922 2924 2926 2928 2930 2932 2934 2936 2937 2939 2941 2943 2946 2948 2950 2951 2953 2954 2956 2958 2959 2961 2962 2964 2965 2966 2967 2969 2970 2971 2972 2973 2974 2975 2976 2977 2978 2979 2980 2981 2982